CHIBUOYS 000
TTAA00 KLOT 161806

MARINE OBSERVATIONS FOR LAKE MICHIGAN
NATIONAL WEATHER SERVICE CHICAGO/ROMEOVILLE IL
100 PM CDT TUE SEP 16 2014


...COASTAL INLAND STATIONS ETC...
  
CITY           SKY/WX    TMP DP  RH WIND       PRES   REMARKS
GARY AIRPORT   MOSUNNY   64  46  52 N12       30.18F                  
CHICAGO MIDWAY MOSUNNY   65  43  44 VRB3      30.17F                  
WHEELING       SUNNY     65  40  39 W7        30.19F                  
WAUKEGAN       SUNNY     63  41  44 VRB3      30.17F                  
KENOSHA        SUNNY     61  42  49 W5        30.17F                  
RACINE         SUNNY     62  40  44 VRB6G21   30.18F                  
MILWAUKEE      MOSUNNY   61  37  41 CALM      30.17F                  
BENTON HARBOR  MOSUNNY   62  47  57 W7        30.16F                  

...BUOY REPORTS...
  
STATION/POSITION SKY/WX   TEMP    WIND        VSBY  WAVE
                          AIR SEA DIR/SP/G          HT/PER
                          (F)     (DEG/KT/KT) (MI)  (FT/S)
45002 45.3N 86.4           55 58  210/ 16/ 17         1/ 3
45007 42.7N 87.0           58 64  280/  6/ 10         2/ 4
45170 41.8N 87.0           59 64  310/  8/ 10         2/ 4
45029 42.9N 86.3           57 56  290/  8/ 10         2/ 5
45161 43.2N 86.4 NOT AVBL
45024 44.0N 86.6           55 55  280/ 10/ 12         3/ 4

...LAKESIDE REPORTS...
  
STATION/POSITION SKY/WX   TEMP    WIND        VSBY  WAVE
                          AIR SEA DIR/SP/G          HT/PER
                          (F)     (DEG/KT/KT) (MI)  (FT/S)
WAUKEGAN HARBOR            58      80/  7/  8
CHICAGO CRIB               57      20/  7/  8
BURNHAM HARBOR             60      50/  5/  7
CALUMET                    60      50/  6/  8
BURNS HARBOR     NOT AVBL
MICHIGAN CITY              60     270/  9/ 10
ST. JOSEPH                 64     210/  5/  9
SOUTH HAVEN                63     330/  8/ 10
HOLLAND          NOT AVBL
MUSKEGON                   59     330/  8/  9
LUDINGTON                  57     280/  6/ 10
BIG SABLE LIGHT            58     260/ 10/ 11
MANISTEE HARBOR  NOT AVBL
GRAND TRAVERSE L           60     250/ 17/ 20
MACKINAW CITY    NOT AVBL
NAUBINWAY        NOT AVBL
PORT INLAND                56     210/ 15/ 17
FAIRPORT         NOT AVBL
NORTHPORT PIER             62     240/  7/ 13
SISTER BAY       NOT AVBL
ALGOMA           NOT AVBL
KEWAUNEE         NOT AVBL
SHEBOYGAN                  59 53  230/  4/  5
PORT WASHINGTON            62     270/  2/ 11
MILWAUKEE                  57     110/  6/  6
KENOSHA                    57      50/  5/  6
$$
  

USA.gov is the U.S. government's official web portal to all federal, state and local government web resources and services.
  • Web Site Owner:
  • National Weather Service
  • Chicago, IL Weather Forecast Office
  • 333 West University Drive
  • Romeoville, IL 60446
  • 815-834-1435 8am-8pm
  • Page Author: LOT Webmaster
  • Web Master's E-mail: w-lot.webmaster@noaa.gov
  • Page last modified: 2-Sep-2010 4:41 PM UTC